Regional Weather Roundup
Issued by NWS Jackson, KY

Home | Current Version | Previous Version | Text Only | Print | Product List | Glossary Off
Versions: 1 2 3 4 5 6 7 8 9 10 11 12 13 14 15 16 17 18 19 20 21 22 23 24 25 26 27 28 29 30 31 32 33 34 35 36 37 38 39 40 41 42 43 44 45 46 47 48 49 50

406
ASUS43 KJKL 011010
RWRJKL

EAST KENTUCKY HOURLY WEATHER ROUNDUP
NATIONAL WEATHER SERVICE JACKSON KY
600 AM EDT SUN MAY 01 2016

NOTE: "FAIR" INDICATES FEW OR NO CLOUDS BELOW 12,000 FEET WITH
NO SIGNIFICANT WEATHER AND/OR OBSTRUCTIONS TO VISIBILITY.

* THESE REPORTS ARE NOT UNDER NWS QUALITY CONTROL AND MAY NOT
  REPORT WEATHER SUCH AS PRECIPITATION AND FOG.

KYZ079-080-083-085-087-088-110-112-115-119-120-011100
...EASTERN KENTUCKY...

CITY           SKY/WX    TMP DP  RH WIND       PRES   REMARKS
JACKSON        LGT RAIN  60  58  92 CALM      29.96S FOG
LONDON         LGT RAIN  60  60 100 CALM      29.94F
SOMERSET*      CLOUDY    59  59 100 CALM      29.95R
MONTICELLO*    CLOUDY    61  60  97 NE8       29.95R
WILLIAMSBURG*  CLOUDY    59  59 100 SE6       29.95F
MIDDLESBORO*   CLOUDY    61  61 100 CALM      29.97S FOG
HARLAN APT*    CLOUDY    61  59  94 CALM      29.98R VSB 1
HAZARD APT*    LGT RAIN  61  61 100 SW5       29.96F
BLACK MTN*       N/A     55  55 100 SW6         N/A
PIKE CO APT*   TSTM      59  59 100 CALM      29.99R
BIG SANDY APT* RAIN      60  60 100 E5        29.96F
MOREHEAD APT*  LGT RAIN  61  61 100 CALM      29.96S
$$

KYZ035-036-041-042-044-050-067-078-099-011100
...CENTRAL KENTUCKY...

CITY           SKY/WX    TMP DP  RH WIND       PRES   REMARKS
MT STERLING*   CLOUDY    61  61 100 S5        29.94R
FLEMING/MASON* DRIZZLE   61  60  99 S8        29.94F
DANVILLE*      HVY RAIN  61  61 100 SW7       29.93S
RICHMOND*      CLOUDY    63  59  88 S3        29.93R
LEXINGTON      CLOUDY    63  61  93 S8        29.91R
FRANKFORT      CLOUDY    63  60  90 CALM      29.90R
LOUISVILLE     CLOUDY    64  63  96 CALM      29.90R FOG
LEBANON*         N/A     64  64 100 S6        29.91R
BOWLING GREEN  MOCLDY    66  64  93 S3        29.90S
$$

KYZ091>093-OHZ055-061-077-WVZ005-015-034-035-042-011100
...SOUTHERN OHIO/WEST VIRGINIA...

CITY           SKY/WX    TMP DP  RH WIND       PRES   REMARKS
COVINGTON      MOCLDY    63  61  94 S8        29.91R
COLUMBUS       CLOUDY    58  58 100 S7        29.89R FOG
DAYTON         MOCLDY    61  60  97 SW9       29.89R
WILMINGTON     PTCLDY    59  59 100 SW7       29.90R
HUNTINGTON     LGT RAIN  61  59  93 SE6       29.94F
CHARLESTON     HVY RAIN  60  58  92 CALM      30.00R FOG
PINEVILLE*     RAIN      57  55  90 MISG      30.03F
BECKLEY        LGT RAIN  53  52  96 E5        30.02R
$$

VAZ002-007-008-TNZ017-027-036-066-071-011100
...SOUTHWEST VIRGINIA/EAST TENNESSEE...

CITY           SKY/WX    TMP DP  RH WIND       PRES   REMARKS
WISE*          CLOUDY    59  59 100 S8        30.01S
BRISTOL        LGT RAIN  60  58  92 N3        29.98S
MORRISTOWN*    CLOUDY    61  61 100 CALM      29.96  FOG
SEVIERVILLE*   CLOUDY    61  61 100 CALM      29.96S
KNOXVILLE      FOG       63  62  97 S3        29.96R VSB 1/4
OAK RIDGE      FOG       63  61  93 CALM      29.98R VSB 1/4
CROSSVILLE     CLEAR     72  62  71 VRB5      29.99R
NASHVILLE      PTCLDY    66  62  87 CALM      29.92R
$$

...KEY TO REMARKS...
VSB - VISIBILITY IN MILES
WCI - WIND CHILL INDEX
HX  - HEAT INDEX

$$




USA.gov is the U.S. government's official web portal to all federal, state and local government web resources and services.